, AK

(GMT )
Denali Park

Weather History for PAIN - October, 2012

Change the Weather History Date:

Monday, October 22, 2012

  Actual Average Record
Temperature  
Mean Temperature 5 °F -  
Max Temperature 21 °F 26 °F 54 °F (1957)
Min Temperature -11 °F 7 °F -18 °F (1996)
Degree Days  
Heating Degree Days 60    
Moisture  
Dew Point -2 °F    
Average Humidity 84    
Maximum Humidity 100    
Minimum Humidity 58    
Precipitation  
Precipitation 0.00 in - - ()
Sea Level Pressure  
Sea Level Pressure 30.27 in    
Wind  
Wind Speed 2 mph (North)    
Max Wind Speed 13 mph    
Max Gust Speed 18 mph    
Visibility 10 miles    
Events      
Averages and records for this station are not official NWS values.
T = Trace of Precipitation, MM = Missing Value Source: NWS Daily Summary

Daily Weather History Graph

Daily Weather History Graph

Search for Another Location

Airport or City:

Trip Planner

Search our weather history database for the weather conditions in past years. The results will help you decide how hot, cold, wet, or windy it might be!

Date:

Astronomy

Oct. 22, 2012 Rise Set
Actual Time 9:07 AM AKDT 6:10 PM AKDT
Civil Twilight 8:18 AM AKDT 7:00 PM AKDT
Nautical Twilight 7:23 AM AKDT 7:55 PM AKDT
Astronomical Twilight 6:28 AM AKDT 8:49 PM AKDT
Moon 4:26 PM AKDT (10/22) No Moon Set
Length of Visible Light 10h 42m
Length of Day
9h 03m
First Quarter, 58% of the Moon is Illuminated
Oct 22
First Quarter
Oct 29
Full
Nov 6
Last Quarter
Nov 13
New
Nov 20
First Quarter

Hourly Weather History & Observations

Time (AKDT) Temp. Windchill Dew Point Humidity Pressure Visibility Wind Dir Wind Speed Gust Speed Precip Events Conditions
12:16 AM -0.4 °F - -4.0 °F 85% 30.24 in 10.0 mi Calm Calm - N/A   Clear
12:36 AM -2.2 °F - -5.8 °F 85% 30.24 in 10.0 mi Calm Calm - N/A   Clear
12:56 AM -4.0 °F - -7.6 °F 85% 30.24 in 10.0 mi Calm Calm - N/A   Clear
1:16 AM -5.8 °F - -5.8 °F 100% 30.24 in 10.0 mi Calm Calm - N/A   Clear
1:36 AM -4.0 °F - -7.6 °F 85% 30.24 in 10.0 mi Calm Calm - N/A   Clear
1:56 AM -5.8 °F - -7.6 °F 92% 30.24 in 10.0 mi Calm Calm - N/A   Clear
2:16 AM -5.8 °F - -7.6 °F 92% 30.24 in 10.0 mi Calm Calm - N/A   Clear
2:36 AM -5.8 °F - -7.6 °F 92% 30.24 in 10.0 mi Calm Calm - N/A   Clear
2:56 AM -5.8 °F - -9.4 °F 84% 30.24 in 10.0 mi Calm Calm - N/A   Clear
3:16 AM -7.6 °F - -9.4 °F 92% 30.24 in 10.0 mi Calm Calm - N/A   Clear
3:36 AM -7.6 °F - -9.4 °F 92% 30.24 in 10.0 mi Calm Calm - N/A   Clear
3:56 AM -7.6 °F - -9.4 °F 92% 30.24 in 10.0 mi Calm Calm - N/A   Clear
4:16 AM -7.6 °F - -11.2 °F 84% 30.23 in 10.0 mi Calm Calm - N/A   Clear
4:36 AM -9.4 °F - -11.2 °F 92% 30.24 in 10.0 mi Calm Calm - N/A   Clear
4:56 AM -9.4 °F - -11.2 °F 92% 30.24 in 10.0 mi Calm Calm - N/A   Clear
5:16 AM -7.6 °F - -11.2 °F 84% 30.23 in 10.0 mi Calm Calm - N/A   Clear
5:36 AM -7.6 °F - -11.2 °F 84% 30.23 in 10.0 mi Calm Calm - N/A   Clear
6:16 AM -7.6 °F - -11.2 °F 84% 30.24 in 10.0 mi Calm Calm - N/A   Clear
6:36 AM -9.4 °F - -11.2 °F 92% 30.24 in 10.0 mi Calm Calm - N/A   Clear
6:56 AM -9.4 °F - -11.2 °F 92% 30.24 in 10.0 mi Calm Calm - N/A   Clear
7:16 AM -9.4 °F - -13.0 °F 84% 30.24 in 10.0 mi Calm Calm - N/A   Clear
7:36 AM -9.4 °F - -11.2 °F 92% 30.24 in 10.0 mi Calm Calm - N/A   Clear
7:56 AM -9.4 °F - -13.0 °F 84% 30.25 in 10.0 mi Calm Calm - N/A   Clear
8:16 AM -11.2 °F - -14.8 °F 84% 30.25 in 10.0 mi Calm Calm - N/A   Clear
8:36 AM -11.2 °F - -14.8 °F 84% 30.25 in 10.0 mi Calm Calm - N/A   Clear
8:56 AM -11.2 °F - -14.8 °F 84% 30.24 in 10.0 mi Calm Calm - N/A   Clear
9:16 AM -11.2 °F - -14.8 °F 84% 30.25 in 10.0 mi Calm Calm - N/A   Clear
9:36 AM -11.2 °F - -13.0 °F 92% 30.25 in 10.0 mi Calm Calm - N/A   Clear
9:56 AM -9.4 °F - -11.2 °F 92% 30.25 in 10.0 mi Calm Calm - N/A   Clear
10:16 AM -5.8 °F - -7.6 °F 92% 30.25 in 10.0 mi Calm Calm - N/A   Clear
10:36 AM -2.2 °F - -5.8 °F 85% 30.25 in 10.0 mi Calm Calm - N/A   Clear
10:56 AM -0.4 °F - -4.0 °F 85% 30.26 in 10.0 mi Calm Calm - N/A   Clear
11:16 AM 1.4 °F - -0.4 °F 92% 30.26 in 10.0 mi Calm Calm - N/A   Clear
11:36 AM 5.0 °F - 1.4 °F 85% 30.26 in 10.0 mi Calm Calm - N/A   Clear
11:56 AM 6.8 °F - 1.4 °F 79% 30.26 in 10.0 mi Calm Calm - N/A   Clear
12:16 PM 10.4 °F - 6.8 °F 85% 30.26 in 10.0 mi Calm Calm - N/A   Clear
12:36 PM 14.0 °F - 6.8 °F 73% 30.26 in 10.0 mi Calm Calm - N/A   Clear
12:56 PM 15.8 °F - 6.8 °F 68% 30.26 in 10.0 mi Calm Calm - N/A   Clear
1:16 PM 19.4 °F - 10.4 °F 68% 30.26 in 10.0 mi Calm Calm - N/A   Clear
1:36 PM 21.2 °F - 12.2 °F 68% 30.26 in 10.0 mi Calm Calm - N/A   Clear
1:56 PM 21.2 °F - 10.4 °F 63% 30.26 in 10.0 mi Calm Calm - N/A   Clear
2:16 PM 21.2 °F - 8.6 °F 58% 30.26 in 10.0 mi Calm Calm - N/A   Clear
2:36 PM 21.2 °F 14.9 °F 8.6 °F 58% 30.25 in 10.0 mi North 4.6 mph - N/A   Clear
2:56 PM 19.4 °F 10.4 °F 8.6 °F 63% 30.26 in 10.0 mi North 6.9 mph - N/A   Clear
3:16 PM 19.4 °F 10.4 °F 8.6 °F 63% 30.26 in 10.0 mi North 6.9 mph - N/A   Clear
3:36 PM 19.4 °F 8.6 °F 8.6 °F 63% 30.26 in 10.0 mi North 9.2 mph - N/A   Clear
3:56 PM 17.6 °F 6.4 °F 8.6 °F 68% 30.26 in 10.0 mi North 9.2 mph - N/A   Clear
4:16 PM 15.8 °F 3.4 °F 8.6 °F 73% 30.26 in 10.0 mi North 10.4 mph - N/A   Clear
4:36 PM 15.8 °F 2.1 °F 8.6 °F 73% 30.26 in 10.0 mi North 12.7 mph 16.1 mph N/A   Clear
4:56 PM 12.2 °F -1.0 °F 8.6 °F 85% 30.27 in 10.0 mi North 10.4 mph - N/A   Clear
5:16 PM 12.2 °F -0.2 °F 6.8 °F 79% 30.27 in 10.0 mi North 9.2 mph - N/A   Clear
5:36 PM 10.4 °F 2.2 °F 6.8 °F 85% 30.27 in 10.0 mi NNW 4.6 mph - N/A   Clear
5:56 PM 10.4 °F -2.4 °F 6.8 °F 85% 30.28 in 10.0 mi North 9.2 mph - N/A   Clear
6:16 PM 8.6 °F -5.5 °F 6.8 °F 92% 30.28 in 10.0 mi North 10.4 mph - N/A   Clear
6:36 PM 8.6 °F -5.5 °F 5.0 °F 85% 30.29 in 10.0 mi North 10.4 mph - N/A   Clear
6:56 PM 6.8 °F -5.9 °F 5.0 °F 92% 30.30 in 10.0 mi North 8.1 mph - N/A   Clear
7:16 PM 6.8 °F -6.9 °F 5.0 °F 92% 30.30 in 10.0 mi North 9.2 mph - N/A   Clear
7:36 PM 6.8 °F -9.3 °F 3.2 °F 85% 30.31 in 10.0 mi North 12.7 mph 18.4 mph N/A   Clear
7:56 PM 5.0 °F -10.0 °F 3.2 °F 92% 30.32 in 10.0 mi North 10.4 mph - N/A   Clear
8:16 PM 3.2 °F -6.2 °F 1.4 °F 92% 30.32 in 10.0 mi NNW 4.6 mph - N/A   Clear
8:36 PM 3.2 °F -7.8 °F 1.4 °F 92% 30.33 in 10.0 mi North 5.8 mph - N/A   Clear
8:56 PM 3.2 °F -4.2 °F 1.4 °F 92% 30.34 in 10.0 mi NNW 3.5 mph - N/A   Clear
9:16 PM 1.4 °F -6.2 °F -0.4 °F 92% 30.34 in 10.0 mi NNW 3.5 mph - N/A   Partly Cloudy
9:36 PM 1.4 °F - -0.4 °F 92% 30.35 in 10.0 mi Calm Calm - N/A   Mostly Cloudy
9:56 PM -0.4 °F -8.3 °F -4.0 °F 85% 30.35 in 10.0 mi NW 3.5 mph - N/A   Mostly Cloudy
10:16 PM -2.2 °F - -5.8 °F 85% 30.36 in 10.0 mi Calm Calm - N/A   Mostly Cloudy
10:36 PM -2.2 °F - -5.8 °F 85% 30.36 in 10.0 mi Calm Calm - N/A   Overcast
10:56 PM -2.2 °F -10.4 °F -5.8 °F 85% 30.37 in 10.0 mi WNW 3.5 mph - N/A   Overcast
11:16 PM -4.0 °F -12.4 °F -7.6 °F 85% 30.37 in 10.0 mi West 3.5 mph - N/A   Overcast
11:36 PM -4.0 °F - -7.6 °F 85% 30.38 in 10.0 mi Calm Calm - N/A   Overcast
11:56 PM -4.0 °F - -5.8 °F 92% 30.38 in 10.0 mi Calm Calm - N/A   Overcast